Time,TemperatureF,DewpointF,PressureIn,WindDirection,WindDirectionDegrees,WindSpeedMPH,WindSpeedGustMPH,Humidity,HourlyPrecipIn,Conditions,Clouds,dailyrainin,SoftwareType,DateUTC
2013-01-11 00:00:00,47.4,36.2,30.38,North,0,0.0,0.0,65,0.00,,---,0.00,VWS V14.01,2013-01-11 05:00:00,
2013-01-11 00:30:00,47.3,36.2,30.37,North,0,0.0,0.0,65,0.00,,---,0.00,VWS V14.01,2013-01-11 05:30:00,
2013-01-11 01:00:00,47.4,34.6,30.36,North,0,0.0,0.0,61,0.00,,---,0.00,VWS V14.01,2013-01-11 06:00:00,
2013-01-11 01:30:00,47.4,33.4,30.36,North,0,0.0,0.0,58,0.00,,---,0.00,VWS V14.01,2013-01-11 06:30:00,
2013-01-11 02:00:00,47.3,32.8,30.34,North,0,0.0,0.0,57,0.00,,---,0.00,VWS V14.01,2013-01-11 07:00:00,
2013-01-11 02:30:00,47.1,31.8,30.33,North,0,0.0,0.0,55,0.00,,---,0.00,VWS V14.01,2013-01-11 07:30:00,
2013-01-11 03:00:00,47.0,31.7,30.33,North,0,0.0,0.0,55,0.00,,---,0.00,VWS V14.01,2013-01-11 08:00:00,
2013-01-11 03:30:00,46.8,31.5,30.33,North,0,0.0,0.0,55,0.00,,---,0.00,VWS V14.01,2013-01-11 08:30:00,
2013-01-11 04:00:00,47.0,30.8,30.31,North,0,0.0,0.0,53,0.00,,---,0.00,VWS V14.01,2013-01-11 09:00:00,
2013-01-11 04:30:00,47.0,30.3,30.30,North,0,0.0,0.0,52,0.00,,---,0.00,VWS V14.01,2013-01-11 09:30:00,
2013-01-11 05:00:00,47.0,30.3,30.30,North,0,0.0,0.0,52,0.00,,---,0.00,VWS V14.01,2013-01-11 10:00:00,
2013-01-11 05:30:00,46.8,31.0,30.27,North,0,0.0,0.0,54,0.00,,---,0.00,VWS V14.01,2013-01-11 10:30:00,
2013-01-11 06:00:00,46.8,30.6,30.26,North,0,0.0,0.0,53,0.00,,---,0.00,VWS V14.01,2013-01-11 11:00:00,
2013-01-11 06:30:00,46.8,31.0,30.27,North,0,0.0,0.0,54,0.00,,---,0.00,VWS V14.01,2013-01-11 11:30:00,
2013-01-11 07:00:00,46.2,33.9,30.27,North,0,0.0,0.0,62,0.00,,---,0.00,VWS V14.01,2013-01-11 12:00:00,
2013-01-11 07:30:00,45.4,35.1,30.28,North,0,0.0,0.0,67,0.00,,---,0.00,VWS V14.01,2013-01-11 12:30:00,
2013-01-11 08:00:00,44.8,37.7,30.30,North,0,0.0,0.0,76,0.01,,---,0.01,VWS V14.01,2013-01-11 13:00:00,
2013-01-11 08:30:00,43.8,39.3,30.30,North,0,0.0,0.0,84,0.04,,---,0.04,VWS V14.01,2013-01-11 13:30:00,
2013-01-11 09:00:00,43.1,40.1,30.29,North,0,0.0,0.0,89,0.05,,---,0.05,VWS V14.01,2013-01-11 14:00:00,
2013-01-11 09:30:00,42.8,40.1,30.29,North,0,0.0,0.0,90,0.06,,---,0.07,VWS V14.01,2013-01-11 14:30:00,
2013-01-11 10:00:00,43.1,40.7,30.29,North,0,0.0,0.0,91,0.07,,---,0.11,VWS V14.01,2013-01-11 15:00:00,
2013-01-11 10:30:00,43.5,41.3,30.28,North,0,0.0,0.0,92,0.08,,---,0.13,VWS V14.01,2013-01-11 15:30:00,
2013-01-11 11:00:00,43.9,42.0,30.28,North,0,0.0,0.0,93,0.10,,---,0.17,VWS V14.01,2013-01-11 16:00:00,
2013-01-11 11:30:00,45.1,43.2,30.26,North,0,0.0,0.0,93,0.09,,---,0.20,VWS V14.01,2013-01-11 16:30:00,
2013-01-11 12:00:00,45.2,43.3,30.26,North,0,0.0,0.0,93,0.07,,---,0.20,VWS V14.01,2013-01-11 17:00:00,
2013-01-11 12:30:00,45.7,43.8,30.22,North,0,0.0,0.0,93,0.03,,---,0.20,VWS V14.01,2013-01-11 17:30:00,
2013-01-11 13:00:00,46.4,44.8,30.20,North,0,0.0,0.0,94,0.00,,---,0.20,VWS V14.01,2013-01-11 18:00:00,
2013-01-11 13:30:00,47.1,45.5,30.19,North,0,0.0,0.0,94,0.00,,---,0.20,VWS V14.01,2013-01-11 18:30:00,
2013-01-11 14:00:00,47.6,45.7,30.17,North,0,0.0,0.0,93,0.00,,---,0.20,VWS V14.01,2013-01-11 19:00:00,
2013-01-11 14:30:00,48.5,46.6,30.15,North,0,0.0,0.0,93,0.00,,---,0.20,VWS V14.01,2013-01-11 19:30:00,
2013-01-11 15:00:00,49.4,47.5,30.15,North,0,0.0,0.0,93,0.00,,---,0.20,VWS V14.01,2013-01-11 20:00:00,
2013-01-11 15:30:00,50.1,47.9,30.14,North,0,0.0,0.0,92,0.00,,---,0.20,VWS V14.01,2013-01-11 20:30:00,
2013-01-11 16:00:00,50.8,48.6,30.13,North,0,0.0,0.0,92,0.00,,---,0.20,VWS V14.01,2013-01-11 21:00:00,
2013-01-11 16:30:00,51.4,49.2,30.12,North,0,0.0,0.0,92,0.00,,---,0.20,VWS V14.01,2013-01-11 21:30:00,
2013-01-11 17:00:00,51.4,49.2,30.12,North,0,0.0,0.0,92,0.00,,---,0.20,VWS V14.01,2013-01-11 22:00:00,
2013-01-11 17:30:00,51.6,49.7,30.10,North,0,0.0,0.0,93,0.00,,---,0.20,VWS V14.01,2013-01-11 22:30:00,
2013-01-11 18:00:00,51.6,49.7,30.11,North,0,0.0,0.0,93,0.00,,---,0.20,VWS V14.01,2013-01-11 23:00:00,
2013-01-11 18:30:00,51.7,49.8,30.11,North,0,0.0,0.0,93,0.00,,---,0.20,VWS V14.01,2013-01-11 23:30:00,
2013-01-11 19:00:00,51.7,50.0,30.10,North,0,0.0,0.0,94,0.00,,---,0.20,VWS V14.01,2013-01-12 00:00:00,
2013-01-11 19:30:00,51.9,50.2,30.11,North,0,0.0,0.0,94,0.00,,---,0.20,VWS V14.01,2013-01-12 00:30:00,
2013-01-11 20:00:00,52.2,50.5,30.10,North,0,0.0,0.0,94,0.00,,---,0.20,VWS V14.01,2013-01-12 01:00:00,
2013-01-11 20:30:00,52.3,50.6,30.10,North,0,0.0,0.0,94,0.00,,---,0.20,VWS V14.01,2013-01-12 01:30:00,
2013-01-11 21:00:00,52.5,51.1,30.09,North,0,0.0,0.0,95,0.00,,---,0.20,VWS V14.01,2013-01-12 02:00:00,
2013-01-11 21:30:00,52.3,50.9,30.09,North,0,0.0,0.0,95,0.00,,---,0.20,VWS V14.01,2013-01-12 02:30:00,
2013-01-11 22:00:00,52.2,50.8,30.10,North,0,0.0,0.0,95,0.00,,---,0.20,VWS V14.01,2013-01-12 03:00:00,
2013-01-11 22:30:00,51.6,50.2,30.10,North,0,0.0,0.0,95,0.00,,---,0.20,VWS V14.01,2013-01-12 03:30:00,
2013-01-11 23:00:00,51.4,50.0,30.09,North,0,0.0,0.0,95,0.00,,---,0.20,VWS V14.01,2013-01-12 04:00:00,
2013-01-11 23:30:00,51.1,49.7,30.08,North,0,0.0,0.0,95,0.00,,---,0.20,VWS V14.01,2013-01-12 04:30:00,